Preview of NWS' New Version of Forecast
This preview is not operational and should not be used for support decisions.

Regional Weather Roundup (RWR)

Issued by National Weather Service (NWS)

                            
000
ASUS43 KBIS 190610
RWRND 

NORTH DAKOTA REGIONAL WEATHER ROUNDUP
NATIONAL WEATHER SERVICE BISMARCK ND
100 AM CDT TUE MAR 19 2019

NOTE: "FAIR" INDICATES FEW OR NO CLOUDS BELOW 12,000 FEET WITH NO
SIGNIFICANT WEATHER AND/OR OBSTRUCTIONS TO VISIBILITY.


NDZ001>003-009>011-017-190700-
NORTHWEST NORTH DAKOTA
  
CITY           SKY/WX    TMP DP  RH WIND       PRES   REMARKS
WILLISTON      CLEAR     32  26  78 N6        30.19R                  
6HR MIN TEMP:  32; 6HR MAX TEMP:  38;                                

MINOT          CLEAR     31  28  89 W13       30.13R                  
MINOT AFB      CLEAR     28  27  95 NW10      30.12R WCI  19          
$$
 
NDZ018>021-031>035-040>046-190700-
SOUTHWEST NORTH DAKOTA
  
CITY           SKY/WX    TMP DP  RH WIND       PRES   REMARKS
BISMARCK       CLEAR     27  24  89 CALM      30.14R                  
6HR MIN TEMP:  27; 6HR MAX TEMP:  37;                                

DICKINSON      PTCLDY    30  27  88 NW13      30.12R WCI  20          
GARRISON         N/A     25  23  92 NW5       30.13R WCI  19          
6HR MIN TEMP:  25; 6HR MAX TEMP:  37;                                

HETTINGER ARPT MOCLDY    28  24  85 W5        30.14R                  
$$
 
NDZ004>008-012>016-024-026-027-054-190700-
NORTHEAST NORTH DAKOTA
  
CITY           SKY/WX    TMP DP  RH WIND       PRES   REMARKS
GRAND FORKS    CLOUDY    30  26  85 S5        30.13R                  
GRND FRKS AFB  CLOUDY    33  30  92 SW3       30.12S                  
DEVILS LAKE    MOCLDY    26  25  96 W8        30.11S WCI  18          
$$
 
NDZ022-023-025-028>030-036>039-047>053-190700-
SOUTHEAST NORTH DAKOTA
  
CITY           SKY/WX    TMP DP  RH WIND       PRES   REMARKS
FARGO          CLOUDY    30  27  88 S8        30.15S                  
6HR MIN TEMP:  29; 6HR MAX TEMP:  32;                                

JAMESTOWN      CLOUDY    32  28  85 W6        30.11R                  
$$